GSAT0214 (GALILEO 18) (41862 NORAD) Tracking and Keplerian Element Data

This shows tracking and keplerian element data for the satellite.

Feedback or suggestion? Click here.




ElementValue
Catalog41862
NameGSAT0214 (GALILEO 18)
Epoch Orbit1511
Epoch Day113.0543413
Epoch Year2019
RAAN173.5503
Inclination54.5952
Eccentricity0.0003961
Argument of Perigee272.0996
Mean Anonmoly87.9355
Mean Motion1.70473972
Decay Rate1E-07
L11 41862U 16069D 19113.05434130 .00000010 00000-0 00000+0 0 9998
L22 41862 54.5952 173.5503 0003961 272.0996 87.9355 1.70473972 15116

Live tracking and technical data element details for GSAT0214 (GALILEO 18) (NORAD 41862). GSAT0214 (GALILEO 18) can be tracked NOW for your location showing map with azimuth and elevation plus other details from your city location.

Track the satellite on the map from your city or location and see movement details for azimuth, elevation, latitude, longitude, range, height, and movement on the map or in text.







IsCatalogInMostPopularTable: catalog: 41862, numindb: 177
Update: records affected: 1



GetName: 41862 GSAT0214 (GALILEO 18)

Hit Count: updated at: Wed, 24 Apr 2019 18:05:40 GMT